Rbgn^[z[y[W
メイン
   新天体発見情報
     Comet P/2023 JN16 (Lemmon)
投稿するにはまず登録を

フラット表示 前のトピック | 次のトピック
投稿者 スレッド
佐藤裕久
投稿日時: 2024-8-22 23:21
モデレータ
登録日: 2005-6-12
居住地: 日本
投稿: 2697
オンライン
Comet P/2023 JN16 (Lemmon)

2023年5月10日、Mt Lemmoサーベイの1.5-m 反射望遠鏡で得たCCD画像から発見された小惑星状天体
が他の観測者によって彗星であることがわかった。この天体はMPS 1890142 (2023年6月15日付)で
発表された時、2023 JN16と小惑星符号がつけられた。
K. Ly (El Monte, カリフォルニア州, 米国) と Arndt Schnabel (Leipzig, ドイツ) によると、
2023年6月15.96-16.11日UT、チリ Coquimbo Rio HurtadoにあるSchnabelの0.43-m反射望遠鏡で得た、
21枚のフィルターなし600-秒露出で、2023 JN16からp.a295-300°に突出した2"-3"のぼんやりした
伸びを見つけた。この天体の点拡散関数(PSF)を近くの背景の恒星のPSFと比較すると、最も良い
シーイングフレームでは、1".0-1".2 (半値全幅:FWHM)に対し、2023 JN16は、1".3-1".5(FWHM)に
広がって見える。 2023 JN16の平均見かけ光度は、V = 20.4等であった。

彗星機能の報告は次のとおり、

OC   Date        Reporter           Coma    Tail    PA          Exposures
247  2023-07-15  K. Ly              6"                            18x600s
G37  2023-09-05  Q.-Z. Ye           2"       15"    285-300
X09  2024-06-29  S. Deen           10"       60"    245
Q55  2024-07-30  S. Borysenko                65"     62           10x60s
Q55  2024-08-03  A. Baransky                 75"     65           10x60s

発見位置は次のとおり、

     2023 UT             R.A. (2000) Decl.       Mag.
     May  10.23253   14 12 07.70   -16 07 04.2   19.6
          10.23942   14 12 07.33   -16 07 02.5   19.2
          10.24515   14 12 07.00   -16 07 01.1   19.1
          10.25088   14 12 06.71   -16 07 00.3

MPCの楕円軌道要素、位置推算表は次のとおり、

Orbital elements:
    P/2023 JN16 (Lemmon)                                                        
Epoch 2024 Oct. 17.0 TT = JDT 2460600.5                                         
T 2024 Dec. 30.54749 TT                                 Rudenko                 
q   2.2997160            (2000.0)            P               Q                  
n   0.22271916     Peri.  353.13603     +0.99612452     -0.08694437             
a   2.6954483      Node    11.87635     +0.08345512     +0.88660967             
e   0.1468150      Incl.    3.70257     +0.02777031     +0.45427301             
P   4.43                                                                        
From 74 observations 2018 Mar. 18-2024 June 29, mean residual 0".3.             
                                                                                
Ephemeris:
Date    TT    R. A. (2000) Decl.     Delta      r    Elong.  Phase   m1
2024 07 17    22 17 46.1 -15 49 28   1.5095  2.4051   143.7    14.5  18.7
...
2024 08 01    22 10 11.4 -16 33 30   1.4100  2.3881   159.7     8.5  18.5
...
2024 08 09    22 04 07.3 -17 02 14   1.3776  2.3796   168.4     4.9  18.5
...
2024 08 15    21 58 59.1 -17 23 41   1.3636  2.3734   174.1     2.5  18.4
2024 08 16    21 58 06.0 -17 27 08   1.3622  2.3724   174.7     2.2  18.4
2024 08 17    21 57 12.6 -17 30 32   1.3610  2.3713   175.1     2.1  18.4
...
2024 08 23    21 51 49.6 -17 49 31   1.3592  2.3654   172.5     3.2  18.4
...
2024 08 31    21 44 52.8 -18 09 38   1.3709  2.3579   164.0     6.8  18.4
...
2024 09 15    21 34 31.6 -18 24 51   1.4338  2.3449   147.5    13.3  18.5

(MPEC 2024-Q04、CBET 5430)

フラット表示 前のトピック | 次のトピック

題名 投稿者 日時
 » Comet P/2023 JN16 (Lemmon) 佐藤裕久 2024-8-22 23:21

投稿するにはまず登録を
 
© 1999 Tsutomu Seki.